| time (UTC) | temp F | wind direction | speed MPH | gust MPH | rain 1hr in | rain 24hr in | rain mn in | humidity % | barometer mb |
| 20260508134054 | 60 | 0 | 1.0 | 4.0 | 0.00 | 0.00 | 0.00 | 88 | 1015.3 |
| 20260508133554 | 60 | 0 | 0.0 | 5.0 | 0.00 | 0.00 | 0.00 | 88 | 1015.2 |
| 20260508133101 | 60 | 0 | 2.0 | 5.0 | 0.00 | 0.00 | 0.00 | 88 | 1015.1 |
| 20260508132554 | 60 | 82 | 1.0 | 4.0 | 0.00 | 0.00 | 0.00 | 88 | 1015.1 |
| 20260508132054 | 60 | 0 | 0.0 | 4.0 | 0.00 | 0.00 | 0.00 | 88 | 1015.1 |
| 20260508131608 | 60 | 105 | 1.0 | 4.0 | 0.00 | 0.00 | 0.00 | 88 | 1015.1 |
| 20260508131051 | 60 | 84 | 1.0 | 4.0 | 0.00 | 0.00 | 0.00 | 88 | 1015.2 |
| 20260508130559 | 60 | 0 | 1.0 | 4.0 | 0.00 | 0.00 | 0.00 | 88 | 1014.9 |
| 20260508130058 | 60 | 57 | 0.0 | 4.0 | 0.00 | 0.00 | 0.00 | 88 | 1014.9 |
| 20260508125558 | 60 | 0 | 0.0 | 2.0 | 0.00 | 0.00 | 0.00 | 88 | 1014.8 |
| 20260508125055 | 60 | 0 | 0.0 | 6.0 | 0.00 | 0.00 | 0.00 | 88 | 1014.7 |
| 20260508124557 | 60 | 85 | 0.0 | 6.0 | 0.00 | 0.00 | 0.00 | 89 | 1014.6 |
| 20260508124054 | 60 | 113 | 1.0 | 5.0 | 0.00 | 0.00 | 0.00 | 89 | 1014.7 |
| 20260508123554 | 60 | 79 | 2.0 | 5.0 | 0.00 | 0.00 | 0.00 | 89 | 1014.5 |
| 20260508123113 | 60 | 132 | 2.0 | 5.0 | 0.00 | 0.00 | 0.00 | 89 | 1014.5 |
| 20260508122555 | 60 | 57 | 0.0 | 4.0 | 0.00 | 0.00 | 0.00 | 89 | 1014.5 |
| 20260508122051 | 60 | 61 | 1.0 | 4.0 | 0.00 | 0.00 | 0.00 | 89 | 1014.4 |
| 20260508121607 | 60 | 0 | 0.0 | 4.0 | 0.00 | 0.00 | 0.00 | 89 | 1014.4 |
| 20260508121050 | 60 | 63 | 0.0 | 4.0 | 0.00 | 0.00 | 0.00 | 89 | 1014.4 |
| 20260508120554 | 60 | 69 | 0.0 | 3.0 | 0.00 | 0.00 | 0.00 | 89 | 1014.4 |
| 20260508120107 | 60 | 51 | 0.0 | 3.0 | 0.00 | 0.00 | 0.00 | 89 | 1014.4 |
| 20260508115551 | 60 | 0 | 0.0 | 3.0 | 0.00 | 0.00 | 0.00 | 89 | 1014.4 |
| 20260508115054 | 60 | 86 | 0.0 | 6.0 | 0.00 | 0.00 | 0.00 | 89 | 1014.5 |
| 20260508114600 | 60 | 0 | 1.0 | 6.0 | 0.00 | 0.00 | 0.00 | 89 | 1014.3 |
| 20260508114058 | 60 | 82 | 1.0 | 4.0 | 0.00 | 0.00 | 0.00 | 89 | 1014.3 |
| 20260508113558 | 60 | 99 | 1.0 | 4.0 | 0.00 | 0.00 | 0.00 | 89 | 1014.3 |
| 20260508113111 | 60 | 78 | 0.0 | 3.0 | 0.00 | 0.00 | 0.00 | 89 | 1014.3 |
| 20260508112554 | 59 | 0 | 0.0 | 2.0 | 0.00 | 0.00 | 0.00 | 89 | 1014.3 |
| 20260508112057 | 59 | 0 | 0.0 | 2.0 | 0.00 | 0.00 | 0.00 | 89 | 1014.4 |
| 20260508111553 | 59 | 0 | 0.0 | 2.0 | 0.00 | 0.00 | 0.00 | 89 | 1014.3 |
| 20260508111056 | 59 | 0 | 0.0 | 5.0 | 0.00 | 0.00 | 0.00 | 88 | 1014.3 |
| 20260508110556 | 59 | 51 | 1.0 | 5.0 | 0.00 | 0.00 | 0.00 | 88 | 1014.2 |
| 20260508110107 | 60 | 69 | 3.0 | 5.0 | 0.00 | 0.00 | 0.00 | 88 | 1014.3 |
| 20260508105557 | 60 | 75 | 0.0 | 4.0 | 0.00 | 0.00 | 0.00 | 89 | 1014.2 |
| 20260508105056 | 59 | 0 | 1.0 | 4.0 | 0.00 | 0.00 | 0.00 | 89 | 1014.2 |
| 20260508104557 | 60 | 175 | 0.0 | 4.0 | 0.00 | 0.00 | 0.00 | 89 | 1014.2 |
| 20260508104056 | 59 | 0 | 0.0 | 4.0 | 0.00 | 0.00 | 0.00 | 89 | 1014.3 |
| 20260508103559 | 59 | 0 | 1.0 | 4.0 | 0.00 | 0.00 | 0.00 | 89 | 1014.2 |
| 20260508103102 | 59 | 72 | 0.0 | 4.0 | 0.00 | 0.00 | 0.00 | 89 | 1014.2 |
| 20260508102556 | 59 | 0 | 0.0 | 4.0 | 0.00 | 0.00 | 0.00 | 89 | 1014.2 |
| 20260508102056 | 59 | 80 | 1.0 | 3.0 | 0.00 | 0.00 | 0.00 | 89 | 1014.2 |
| 20260508101556 | 59 | 0 | 1.0 | 3.0 | 0.00 | 0.00 | 0.00 | 89 | 1014.3 |
| 20260508101056 | 59 | 0 | 0.0 | 2.0 | 0.00 | 0.00 | 0.00 | 89 | 1014.3 |
| 20260508100556 | 59 | 51 | 0.0 | 3.0 | 0.00 | 0.00 | 0.00 | 89 | 1014.2 |
| 20260508100055 | 59 | 0 | 1.0 | 3.0 | 0.00 | 0.00 | 0.00 | 89 | 1014.3 |
| 20260508095557 | 59 | 0 | 0.0 | 3.0 | 0.00 | 0.00 | 0.00 | 89 | 1014.2 |
| 20260508095057 | 59 | 57 | 1.0 | 3.0 | 0.00 | 0.00 | 0.00 | 89 | 1014.3 |
| 20260508094557 | 59 | 61 | 1.0 | 3.0 | 0.00 | 0.00 | 0.00 | 89 | 1014.4 |
| 20260508094056 | 59 | 0 | 0.0 | 3.0 | 0.00 | 0.00 | 0.00 | 89 | 1014.4 |
| 20260508093556 | 59 | 51 | 1.0 | 3.0 | 0.00 | 0.00 | 0.00 | 89 | 1014.4 |
| 20260508093105 | 59 | 0 | 0.0 | 2.0 | 0.00 | 0.00 | 0.00 | 89 | 1014.4 |
| 20260508092556 | 59 | 0 | 0.0 | 2.0 | 0.00 | 0.00 | 0.00 | 89 | 1014.4 |
| 20260508092056 | 59 | 0 | 0.0 | 3.0 | 0.00 | 0.00 | 0.00 | 89 | 1014.4 |
| 20260508091556 | 59 | 0 | 0.0 | 3.0 | 0.00 | 0.00 | 0.00 | 89 | 1014.5 |
| 20260508091057 | 59 | 0 | 0.0 | 3.0 | 0.00 | 0.00 | 0.00 | 89 | 1014.5 |
| 20260508090557 | 59 | 0 | 0.0 | 2.0 | 0.00 | 0.00 | 0.00 | 89 | 1014.6 |
| 20260508090106 | 59 | 324 | 0.0 | 0.0 | 0.00 | 0.00 | 0.00 | 89 | 1014.5 |
| 20260508085556 | 59 | 0 | 0.0 | 3.0 | 0.00 | 0.00 | 0.00 | 89 | 1014.5 |
| 20260508085056 | 59 | 0 | 0.0 | 3.0 | 0.00 | 0.00 | 0.00 | 89 | 1014.5 |
| 20260508084559 | 59 | 0 | 1.0 | 3.0 | 0.00 | 0.00 | 0.00 | 89 | 1014.6 |
| 20260508084059 | 59 | 0 | 0.0 | 3.0 | 0.00 | 0.00 | 0.00 | 89 | 1014.6 |
| 20260508083557 | 59 | 0 | 0.0 | 3.0 | 0.00 | 0.00 | 0.00 | 89 | 1014.6 |
| 20260508083104 | 59 | 282 | 1.0 | 3.0 | 0.00 | 0.00 | 0.00 | 89 | 1014.7 |
| 20260508082557 | 59 | 281 | 0.0 | 2.0 | 0.00 | 0.00 | 0.00 | 89 | 1014.7 |
| 20260508082100 | 59 | 0 | 0.0 | 4.0 | 0.00 | 0.00 | 0.00 | 89 | 1014.7 |
| 20260508081602 | 59 | 273 | 1.0 | 4.0 | 0.00 | 0.00 | 0.00 | 89 | 1014.8 |
| 20260508081056 | 60 | 271 | 0.0 | 4.0 | 0.00 | 0.00 | 0.00 | 89 | 1014.9 |
| 20260508080556 | 60 | 0 | 1.0 | 4.0 | 0.00 | 0.00 | 0.00 | 88 | 1014.9 |
| 20260508080056 | 60 | 290 | 2.0 | 4.0 | 0.00 | 0.00 | 0.00 | 88 | 1014.9 |
| 20260508075556 | 60 | 275 | 1.0 | 3.0 | 0.00 | 0.00 | 0.00 | 88 | 1015.1 |
| 20260508075056 | 60 | 306 | 0.0 | 3.0 | 0.00 | 0.00 | 0.00 | 88 | 1015.1 |
| 20260508074556 | 60 | 0 | 0.0 | 2.0 | 0.00 | 0.00 | 0.00 | 88 | 1015.0 |
| 20260508074058 | 60 | 0 | 0.0 | 4.0 | 0.00 | 0.00 | 0.00 | 88 | 1015.0 |
| 20260508073556 | 60 | 85 | 0.0 | 4.0 | 0.00 | 0.00 | 0.00 | 89 | 1015.1 |
| 20260508073102 | 60 | 0 | 0.0 | 4.0 | 0.00 | 0.00 | 0.00 | 89 | 1015.1 |
| 20260508072556 | 60 | 131 | 1.0 | 4.0 | 0.00 | 0.00 | 0.00 | 89 | 1015.1 |
| 20260508072056 | 60 | 74 | 1.0 | 3.0 | 0.00 | 0.00 | 0.00 | 89 | 1015.1 |
| 20260508071555 | 60 | 70 | 0.0 | 4.0 | 0.00 | 0.00 | 0.00 | 89 | 1015.1 |
| 20260508071055 | 60 | 72 | 1.0 | 4.0 | 0.00 | 0.00 | 0.00 | 88 | 1015.0 |
| 20260508070600 | 60 | 68 | 1.0 | 3.0 | 0.00 | 0.00 | 0.00 | 88 | 1015.0 |
| 20260508070057 | 60 | 78 | 0.0 | 4.0 | 0.00 | 0.00 | 0.00 | 89 | 1015.0 |
| 20260508065557 | 59 | 193 | 0.0 | 4.0 | 0.00 | 0.00 | 0.00 | 89 | 1015.0 |
| 20260508065059 | 59 | 49 | 2.0 | 4.0 | 0.00 | 0.00 | 0.00 | 88 | 1014.9 |
| 20260508064608 | 59 | 98 | 0.0 | 4.0 | 0.00 | 0.00 | 0.00 | 89 | 1014.9 |
| 20260508064057 | 59 | 78 | 0.0 | 2.0 | 0.00 | 0.00 | 0.00 | 89 | 1015.0 |
| 20260508063557 | 59 | 0 | 0.0 | 2.0 | 0.00 | 0.00 | 0.00 | 89 | 1015.0 |
| 20260508063104 | 59 | 0 | 0.0 | 0.0 | 0.00 | 0.00 | 0.00 | 89 | 1015.0 |
| 20260508062600 | 59 | 0 | 0.0 | 2.0 | 0.00 | 0.00 | 0.00 | 89 | 1014.9 |
| 20260508062057 | 59 | 0 | 0.0 | 5.0 | 0.00 | 0.00 | 0.00 | 88 | 1014.9 |
| 20260508061559 | 59 | 0 | 0.0 | 7.0 | 0.00 | 0.00 | 0.00 | 88 | 1014.7 |
| 20260508061057 | 59 | 0 | 1.0 | 7.0 | 0.00 | 0.00 | 0.00 | 88 | 1014.8 |
| 20260508060558 | 60 | 170 | 2.0 | 6.0 | 0.00 | 0.00 | 0.00 | 88 | 1014.7 |
| 20260508055557 | 60 | 173 | 1.0 | 4.0 | 0.00 | 0.00 | 0.00 | 88 | 1014.7 |
| 20260508055056 | 60 | 103 | 0.0 | 3.0 | 0.00 | 0.00 | 0.00 | 88 | 1014.7 |
| 20260508054556 | 60 | 0 | 0.0 | 4.0 | 0.00 | 0.00 | 0.00 | 88 | 1014.8 |
| 20260508054056 | 60 | 0 | 2.0 | 6.0 | 0.00 | 0.00 | 0.00 | 87 | 1014.9 |
| 20260508053557 | 60 | 176 | 1.0 | 6.0 | 0.00 | 0.00 | 0.00 | 88 | 1014.9 |
| 20260508053107 | 60 | 170 | 0.0 | 5.0 | 0.00 | 0.00 | 0.00 | 88 | 1014.9 |
| 20260508052556 | 60 | 269 | 1.0 | 5.0 | 0.00 | 0.00 | 0.00 | 88 | 1014.8 |
| 20260508052058 | 60 | 0 | 0.0 | 4.0 | 0.00 | 0.00 | 0.00 | 89 | 1014.8 |
| 20260508051556 | 60 | 279 | 1.0 | 4.0 | 0.00 | 0.00 | 0.00 | 89 | 1014.8 |
| 20260508051057 | 59 | 251 | 0.0 | 4.0 | 0.00 | 0.00 | 0.00 | 89 | 1014.8 |
| 20260508050557 | 59 | 0 | 0.0 | 4.0 | 0.00 | 0.00 | 0.00 | 89 | 1014.8 |
| 20260508050055 | 59 | 198 | 0.0 | 4.0 | 0.00 | 0.00 | 0.00 | 89 | 1014.8 |
| 20260508045556 | 59 | 289 | 1.0 | 5.0 | 0.00 | 0.00 | 0.00 | 88 | 1014.7 |
| 20260508045055 | 59 | 0 | 1.0 | 5.0 | 0.00 | 0.00 | 0.00 | 89 | 1014.7 |
| 20260508044554 | 59 | 0 | 1.0 | 4.0 | 0.00 | 0.00 | 0.00 | 89 | 1014.6 |
| 20260508044056 | 59 | 277 | 1.0 | 4.0 | 0.00 | 0.00 | 0.00 | 89 | 1014.5 |
| 20260508043554 | 59 | 0 | 0.0 | 4.0 | 0.00 | 0.00 | 0.00 | 88 | 1014.4 |
| 20260508043100 | 59 | 213 | 1.0 | 4.0 | 0.00 | 0.00 | 0.00 | 88 | 1014.4 |
| 20260508042554 | 59 | 0 | 0.0 | 4.0 | 0.00 | 0.00 | 0.00 | 88 | 1014.4 |
| 20260508042054 | 59 | 0 | 0.0 | 5.0 | 0.00 | 0.00 | 0.00 | 88 | 1014.4 |
| 20260508041601 | 59 | 279 | 1.0 | 5.0 | 0.00 | 0.00 | 0.00 | 88 | 1014.2 |
| 20260508041055 | 59 | 269 | 2.0 | 5.0 | 0.00 | 0.00 | 0.00 | 87 | 1014.2 |
| 20260508040551 | 59 | 281 | 1.0 | 5.0 | 0.00 | 0.00 | 0.00 | 87 | 1014.1 |
| 20260508040100 | 59 | 273 | 2.0 | 7.0 | 0.00 | 0.00 | 0.00 | 87 | 1014.0 |
| 20260508035555 | 59 | 224 | 1.0 | 7.0 | 0.00 | 0.00 | 0.00 | 87 | 1014.2 |
| 20260508035051 | 59 | 207 | 3.0 | 7.0 | 0.00 | 0.00 | 0.00 | 87 | 1014.0 |
| 20260508034612 | 59 | 140 | 1.0 | 6.0 | 0.00 | 0.00 | 0.00 | 87 | 1013.9 |
| 20260508034056 | 59 | 200 | 3.0 | 6.0 | 0.00 | 0.00 | 0.00 | 87 | 1013.9 |
| 20260508033554 | 59 | 269 | 1.0 | 4.0 | 0.00 | 0.00 | 0.00 | 88 | 1013.8 |
| 20260508033057 | 59 | 275 | 1.0 | 4.0 | 0.00 | 0.00 | 0.00 | 88 | 1013.7 |
| 20260508032555 | 60 | 252 | 1.0 | 3.0 | 0.00 | 0.00 | 0.00 | 88 | 1013.7 |
| 20260508032055 | 60 | 0 | 0.0 | 3.0 | 0.00 | 0.00 | 0.00 | 88 | 1013.7 |
| 20260508031556 | 60 | 286 | 0.0 | 4.0 | 0.00 | 0.00 | 0.00 | 88 | 1013.6 |
| 20260508031055 | 60 | 223 | 0.0 | 5.0 | 0.00 | 0.00 | 0.00 | 88 | 1013.6 |
| 20260508030555 | 60 | 225 | 2.0 | 5.0 | 0.00 | 0.00 | 0.00 | 88 | 1013.6 |
| 20260508030103 | 60 | 0 | 3.0 | 8.0 | 0.00 | 0.00 | 0.00 | 87 | 1013.4 |
| 20260508025555 | 60 | 315 | 3.0 | 8.0 | 0.00 | 0.00 | 0.00 | 87 | 1013.4 |
| 20260508025054 | 60 | 238 | 3.0 | 8.0 | 0.00 | 0.00 | 0.00 | 87 | 1013.4 |
| 20260508024558 | 60 | 208 | 4.0 | 8.0 | 0.00 | 0.00 | 0.00 | 86 | 1013.4 |
| 20260508024055 | 60 | 178 | 3.0 | 9.0 | 0.00 | 0.00 | 0.00 | 86 | 1013.4 |
| 20260508023555 | 60 | 213 | 3.0 | 9.0 | 0.00 | 0.00 | 0.00 | 85 | 1013.3 |
| 20260508023059 | 61 | 204 | 5.0 | 9.0 | 0.00 | 0.00 | 0.00 | 84 | 1013.4 |
| 20260508022555 | 61 | 226 | 2.0 | 8.0 | 0.00 | 0.00 | 0.00 | 84 | 1013.3 |
| 20260508022055 | 61 | 261 | 2.0 | 7.0 | 0.00 | 0.00 | 0.00 | 84 | 1013.2 |
| 20260508021601 | 62 | 203 | 3.0 | 7.0 | 0.00 | 0.00 | 0.00 | 83 | 1013.1 |
| 20260508021054 | 62 | 234 | 3.0 | 7.0 | 0.00 | 0.00 | 0.00 | 83 | 1013.2 |
| 20260508020551 | 62 | 198 | 2.0 | 10.0 | 0.00 | 0.00 | 0.00 | 82 | 1013.1 |
| 20260508015556 | 62 | 0 | 3.0 | 8.0 | 0.00 | 0.00 | 0.00 | 82 | 1012.9 |
| 20260508015054 | 62 | 229 | 3.0 | 8.0 | 0.00 | 0.00 | 0.00 | 82 | 1012.9 |
| 20260508014557 | 62 | 227 | 4.0 | 10.0 | 0.00 | 0.00 | 0.00 | 82 | 1012.9 |
| 20260508014051 | 62 | 221 | 4.0 | 10.0 | 0.00 | 0.00 | 0.00 | 83 | 1012.9 |
| 20260508013551 | 62 | 188 | 4.0 | 10.0 | 0.00 | 0.00 | 0.00 | 83 | 1012.9 |
| 20260508013100 | 62 | 281 | 7.0 | 11.0 | 0.00 | 0.00 | 0.00 | 82 | 1012.8 |
| 20260508012555 | 63 | 244 | 7.0 | 11.0 | 0.00 | 0.00 | 0.00 | 81 | 1012.9 |
| 20260508012054 | 63 | 283 | 4.0 | 10.0 | 0.00 | 0.00 | 0.00 | 81 | 1012.8 |
| 20260508011558 | 63 | 179 | 4.0 | 10.0 | 0.00 | 0.00 | 0.00 | 81 | 1012.9 |
| 20260508011054 | 63 | 213 | 6.0 | 10.0 | 0.00 | 0.00 | 0.00 | 80 | 1013.0 |
| 20260508010554 | 64 | 267 | 5.0 | 10.0 | 0.00 | 0.00 | 0.00 | 78 | 1012.9 |
| 20260508010056 | 64 | 254 | 5.0 | 11.0 | 0.00 | 0.00 | 0.00 | 78 | 1012.9 |
| 20260508005558 | 64 | 264 | 3.0 | 11.0 | 0.00 | 0.00 | 0.00 | 77 | 1012.9 |
| 20260508005057 | 65 | 277 | 7.0 | 14.0 | 0.00 | 0.00 | 0.00 | 76 | 1013.0 |
| 20260508004556 | 65 | 234 | 6.0 | 14.0 | 0.00 | 0.00 | 0.00 | 74 | 1012.9 |
| 20260508004059 | 65 | 123 | 4.0 | 10.0 | 0.00 | 0.00 | 0.00 | 74 | 1012.9 |
| 20260508003551 | 66 | 186 | 5.0 | 10.0 | 0.00 | 0.00 | 0.00 | 73 | 1012.9 |
| 20260508003055 | 66 | 135 | 4.0 | 11.0 | 0.00 | 0.00 | 0.00 | 73 | 1012.8 |
| 20260508002555 | 65 | 191 | 5.0 | 13.0 | 0.00 | 0.00 | 0.00 | 73 | 1012.8 |
| 20260508002055 | 66 | 180 | 6.0 | 13.0 | 0.00 | 0.00 | 0.00 | 72 | 1012.8 |
| 20260508001612 | 66 | 164 | 5.0 | 10.0 | 0.00 | 0.00 | 0.00 | 72 | 1012.8 |
| 20260508001054 | 66 | 304 | 4.0 | 13.0 | 0.00 | 0.00 | 0.00 | 73 | 1012.8 |
| 20260508000556 | 66 | 279 | 6.0 | 13.0 | 0.00 | 0.00 | 0.00 | 72 | 1012.9 |
| 20260508000053 | 67 | 277 | 4.0 | 11.0 | 0.00 | 0.00 | 0.00 | 72 | 1012.9 |
| 20260507235557 | 67 | 212 | 3.0 | 10.0 | 0.00 | 0.00 | 0.00 | 73 | 1012.9 |
| 20260507235054 | 66 | 234 | 5.0 | 12.0 | 0.00 | 0.00 | 0.00 | 73 | 1012.9 |
| 20260507234557 | 65 | 196 | 4.0 | 13.0 | 0.00 | 0.00 | 0.00 | 75 | 1012.9 |
| 20260507234106 | 65 | 260 | 8.0 | 13.0 | 0.00 | 0.00 | 0.00 | 74 | 1013.0 |
| 20260507233555 | 66 | 274 | 7.0 | 12.0 | 0.00 | 0.00 | 0.00 | 74 | 1013.1 |
| 20260507233054 | 66 | 240 | 7.0 | 12.0 | 0.00 | 0.00 | 0.00 | 73 | 1013.1 |
| 20260507232555 | 66 | 267 | 5.0 | 13.0 | 0.00 | 0.00 | 0.00 | 74 | 1013.0 |
| 20260507232054 | 67 | 311 | 6.0 | 13.0 | 0.00 | 0.00 | 0.00 | 74 | 1013.1 |
| 20260507231556 | 67 | 196 | 5.0 | 10.0 | 0.00 | 0.00 | 0.00 | 74 | 1013.1 |
| 20260507231055 | 67 | 182 | 3.0 | 10.0 | 0.00 | 0.00 | 0.00 | 75 | 1013.1 |
| 20260507230555 | 66 | 312 | 3.0 | 10.0 | 0.00 | 0.00 | 0.00 | 76 | 1013.1 |
| 20260507230054 | 66 | 279 | 5.0 | 14.0 | 0.00 | 0.00 | 0.00 | 76 | 1013.3 |
| 20260507225555 | 66 | 288 | 6.0 | 14.0 | 0.00 | 0.00 | 0.00 | 77 | 1013.3 |
| 20260507225055 | 66 | 161 | 7.0 | 11.0 | 0.00 | 0.00 | 0.00 | 75 | 1013.2 |
| 20260507224558 | 66 | 166 | 6.0 | 12.0 | 0.00 | 0.00 | 0.00 | 76 | 1013.3 |
| 20260507224054 | 67 | 257 | 5.0 | 12.0 | 0.00 | 0.00 | 0.00 | 76 | 1013.3 |
| 20260507223554 | 67 | 218 | 6.0 | 13.0 | 0.00 | 0.00 | 0.00 | 76 | 1013.4 |
| 20260507223053 | 67 | 207 | 5.0 | 13.0 | 0.00 | 0.00 | 0.00 | 76 | 1013.4 |
| 20260507222553 | 67 | 281 | 5.0 | 16.0 | 0.00 | 0.00 | 0.00 | 74 | 1013.4 |
| 20260507222054 | 67 | 267 | 5.0 | 16.0 | 0.00 | 0.00 | 0.00 | 75 | 1013.4 |
| 20260507221554 | 67 | 183 | 6.0 | 14.0 | 0.00 | 0.00 | 0.00 | 73 | 1013.5 |
| 20260507221055 | 67 | 267 | 6.0 | 14.0 | 0.00 | 0.00 | 0.00 | 75 | 1013.5 |
| 20260507220556 | 67 | 265 | 6.0 | 17.0 | 0.00 | 0.00 | 0.00 | 74 | 1013.5 |
| 20260507220054 | 66 | 263 | 9.0 | 17.0 | 0.00 | 0.00 | 0.00 | 75 | 1013.6 |
| 20260507215555 | 66 | 265 | 6.0 | 13.0 | 0.00 | 0.00 | 0.00 | 74 | 1013.6 |
| 20260507215055 | 67 | 269 | 7.0 | 13.0 | 0.00 | 0.00 | 0.00 | 73 | 1013.7 |
| 20260507214600 | 67 | 261 | 9.0 | 14.0 | 0.00 | 0.00 | 0.00 | 72 | 1013.7 |
| 20260507214054 | 67 | 253 | 5.0 | 14.0 | 0.00 | 0.00 | 0.00 | 73 | 1013.8 |
| 20260507213556 | 67 | 271 | 7.0 | 15.0 | 0.00 | 0.00 | 0.00 | 73 | 1013.8 |
| 20260507213056 | 66 | 265 | 10.0 | 15.0 | 0.00 | 0.00 | 0.00 | 74 | 1013.9 |
| 20260507212553 | 67 | 220 | 5.0 | 12.0 | 0.00 | 0.00 | 0.00 | 74 | 1013.9 |
| 20260507212051 | 67 | 225 | 5.0 | 12.0 | 0.00 | 0.00 | 0.00 | 74 | 1013.9 |
| 20260507211555 | 67 | 291 | 7.0 | 12.0 | 0.00 | 0.00 | 0.00 | 73 | 1013.9 |
| 20260507211054 | 67 | 265 | 7.0 | 12.0 | 0.00 | 0.00 | 0.00 | 74 | 1014.0 |
| 20260507210558 | 67 | 264 | 5.0 | 12.0 | 0.00 | 0.00 | 0.00 | 74 | 1014.0 |
| 20260507210055 | 67 | 215 | 6.0 | 12.0 | 0.00 | 0.00 | 0.00 | 74 | 1014.1 |
| 20260507205555 | 67 | 171 | 6.0 | 13.0 | 0.00 | 0.00 | 0.00 | 72 | 1014.2 |
| 20260507205055 | 67 | 221 | 7.0 | 16.0 | 0.00 | 0.00 | 0.00 | 73 | 1014.2 |
| 20260507204558 | 67 | 192 | 8.0 | 16.0 | 0.00 | 0.00 | 0.00 | 73 | 1014.2 |
| 20260507204054 | 68 | 132 | 9.0 | 13.0 | 0.00 | 0.00 | 0.00 | 72 | 1014.1 |
| 20260507203555 | 68 | 208 | 4.0 | 14.0 | 0.00 | 0.00 | 0.00 | 73 | 1014.2 |
| 20260507203059 | 68 | 207 | 5.0 | 14.0 | 0.00 | 0.00 | 0.00 | 72 | 1014.3 |
| 20260507202557 | 68 | 219 | 6.0 | 13.0 | 0.00 | 0.00 | 0.00 | 73 | 1014.3 |
| 20260507202054 | 68 | 204 | 7.0 | 14.0 | 0.00 | 0.00 | 0.00 | 73 | 1014.3 |
| 20260507201559 | 67 | 177 | 5.0 | 14.0 | 0.00 | 0.00 | 0.00 | 73 | 1014.4 |
| 20260507201051 | 67 | 190 | 6.0 | 12.0 | 0.00 | 0.00 | 0.00 | 74 | 1014.4 |
| 20260507200555 | 67 | 266 | 6.0 | 11.0 | 0.00 | 0.00 | 0.00 | 72 | 1014.4 |
| 20260507200109 | 67 | 182 | 5.0 | 11.0 | 0.00 | 0.00 | 0.00 | 72 | 1014.6 |
| 20260507195554 | 67 | 282 | 6.0 | 11.0 | 0.00 | 0.00 | 0.00 | 73 | 1014.7 |
| 20260507195051 | 67 | 285 | 8.0 | 11.0 | 0.00 | 0.00 | 0.00 | 72 | 1014.6 |
| 20260507194555 | 67 | 304 | 4.0 | 10.0 | 0.00 | 0.00 | 0.00 | 73 | 1014.7 |
| 20260507194054 | 67 | 269 | 4.0 | 13.0 | 0.00 | 0.00 | 0.00 | 73 | 1014.8 |
| 20260507193554 | 67 | 196 | 6.0 | 13.0 | 0.00 | 0.00 | 0.00 | 73 | 1014.8 |
| 20260507193056 | 67 | 192 | 6.0 | 13.0 | 0.00 | 0.00 | 0.00 | 72 | 1014.8 |
| 20260507192554 | 67 | 184 | 4.0 | 12.0 | 0.00 | 0.00 | 0.00 | 72 | 1014.9 |
| 20260507192059 | 67 | 209 | 7.0 | 12.0 | 0.00 | 0.00 | 0.00 | 72 | 1014.9 |
| 20260507191558 | 67 | 323 | 4.0 | 11.0 | 0.00 | 0.00 | 0.00 | 73 | 1015.0 |
| 20260507191055 | 67 | 180 | 6.0 | 11.0 | 0.00 | 0.00 | 0.00 | 73 | 1015.0 |
| 20260507190555 | 67 | 211 | 4.0 | 11.0 | 0.00 | 0.00 | 0.00 | 73 | 1015.0 |
| 20260507190057 | 67 | 168 | 4.0 | 10.0 | 0.00 | 0.00 | 0.00 | 73 | 1015.0 |
| 20260507185554 | 67 | 192 | 5.0 | 10.0 | 0.00 | 0.00 | 0.00 | 72 | 1015.0 |
| 20260507185051 | 67 | 267 | 3.0 | 9.0 | 0.00 | 0.00 | 0.00 | 73 | 1015.1 |
| 20260507184603 | 67 | 183 | 4.0 | 9.0 | 0.00 | 0.00 | 0.00 | 73 | 1015.1 |
| 20260507184054 | 66 | 224 | 4.0 | 10.0 | 0.00 | 0.00 | 0.00 | 74 | 1015.1 |
| 20260507183554 | 66 | 179 | 5.0 | 10.0 | 0.00 | 0.00 | 0.00 | 74 | 1015.1 |
| 20260507183054 | 66 | 189 | 4.0 | 10.0 | 0.00 | 0.00 | 0.00 | 73 | 1015.1 |
| 20260507182556 | 66 | 214 | 4.0 | 8.0 | 0.00 | 0.00 | 0.00 | 73 | 1015.2 |
| 20260507182055 | 66 | 257 | 4.0 | 10.0 | 0.00 | 0.00 | 0.00 | 73 | 1015.2 |
| 20260507181602 | 66 | 207 | 3.0 | 10.0 | 0.00 | 0.00 | 0.00 | 73 | 1015.2 |
| 20260507181054 | 66 | 257 | 4.0 | 9.0 | 0.00 | 0.00 | 0.00 | 74 | 1015.2 |
| 20260507180555 | 66 | 195 | 5.0 | 9.0 | 0.00 | 0.00 | 0.00 | 74 | 1015.1 |
| 20260507180053 | 66 | 300 | 4.0 | 9.0 | 0.00 | 0.00 | 0.00 | 74 | 1015.0 |
| 20260507175558 | 66 | 271 | 4.0 | 14.0 | 0.00 | 0.00 | 0.00 | 74 | 1015.0 |
| 20260507175054 | 66 | 178 | 4.0 | 14.0 | 0.00 | 0.00 | 0.00 | 75 | 1015.0 |
| 20260507174559 | 66 | 176 | 6.0 | 11.0 | 0.00 | 0.00 | 0.00 | 74 | 1015.1 |
| 20260507174055 | 66 | 213 | 3.0 | 10.0 | 0.00 | 0.00 | 0.00 | 74 | 1015.0 |
| 20260507173554 | 66 | 260 | 5.0 | 9.0 | 0.00 | 0.00 | 0.00 | 74 | 1015.1 |
| 20260507173053 | 66 | 250 | 4.0 | 9.0 | 0.00 | 0.00 | 0.00 | 73 | 1015.2 |
| 20260507172558 | 66 | 288 | 3.0 | 7.0 | 0.00 | 0.00 | 0.00 | 73 | 1015.2 |
| 20260507172055 | 66 | 245 | 4.0 | 7.0 | 0.00 | 0.00 | 0.00 | 74 | 1015.1 |
| 20260507171606 | 66 | 0 | 2.0 | 6.0 | 0.00 | 0.00 | 0.00 | 74 | 1015.2 |
| 20260507171055 | 66 | 221 | 1.0 | 8.0 | 0.00 | 0.00 | 0.00 | 77 | 1015.1 |
| 20260507170555 | 65 | 277 | 2.0 | 8.0 | 0.00 | 0.00 | 0.00 | 77 | 1015.3 |
| 20260507170057 | 65 | 159 | 2.0 | 7.0 | 0.00 | 0.00 | 0.00 | 78 | 1015.2 |
| 20260507165554 | 64 | 183 | 2.0 | 9.0 | 0.00 | 0.00 | 0.00 | 78 | 1015.3 |
| 20260507165055 | 64 | 197 | 2.0 | 9.0 | 0.00 | 0.00 | 0.00 | 78 | 1015.3 |
| 20260507164558 | 64 | 238 | 4.0 | 9.0 | 0.00 | 0.00 | 0.00 | 79 | 1015.4 |
| 20260507164058 | 64 | 254 | 3.0 | 8.0 | 0.00 | 0.00 | 0.00 | 79 | 1015.4 |
| 20260507163554 | 64 | 177 | 2.0 | 9.0 | 0.00 | 0.00 | 0.00 | 80 | 1015.4 |
| 20260507163101 | 63 | 196 | 2.0 | 9.0 | 0.00 | 0.00 | 0.00 | 80 | 1015.5 |
| 20260507162554 | 63 | 244 | 2.0 | 7.0 | 0.00 | 0.00 | 0.00 | 80 | 1015.4 |
| 20260507162054 | 63 | 173 | 3.0 | 8.0 | 0.00 | 0.00 | 0.00 | 80 | 1015.4 |
| 20260507161604 | 63 | 172 | 3.0 | 8.0 | 0.00 | 0.00 | 0.00 | 80 | 1015.4 |
| 20260507161055 | 63 | 234 | 3.0 | 6.0 | 0.00 | 0.00 | 0.00 | 80 | 1015.5 |
| 20260507160555 | 63 | 192 | 2.0 | 6.0 | 0.00 | 0.00 | 0.00 | 79 | 1015.4 |
| 20260507160056 | 63 | 236 | 2.0 | 6.0 | 0.00 | 0.00 | 0.00 | 79 | 1015.4 |
| 20260507155554 | 63 | 268 | 2.0 | 6.0 | 0.00 | 0.00 | 0.00 | 80 | 1015.5 |
| 20260507155055 | 63 | 0 | 1.0 | 5.0 | 0.00 | 0.00 | 0.00 | 80 | 1015.6 |
| 20260507154604 | 63 | 352 | 3.0 | 5.0 | 0.00 | 0.00 | 0.00 | 80 | 1015.6 |
| 20260507154052 | 63 | 261 | 1.0 | 6.0 | 0.00 | 0.00 | 0.00 | 80 | 1015.6 |
| 20260507153552 | 63 | 195 | 1.0 | 6.0 | 0.00 | 0.00 | 0.00 | 80 | 1015.6 |
| 20260507153101 | 63 | 249 | 2.0 | 6.0 | 0.00 | 0.00 | 0.00 | 79 | 1015.5 |
| 20260507152552 | 63 | 231 | 1.0 | 4.0 | 0.00 | 0.00 | 0.00 | 80 | 1015.6 |
| 20260507152052 | 63 | 0 | 1.0 | 4.0 | 0.00 | 0.00 | 0.00 | 80 | 1015.6 |
| 20260507151554 | 63 | 182 | 1.0 | 4.0 | 0.00 | 0.00 | 0.00 | 80 | 1015.5 |
| 20260507151052 | 63 | 0 | 1.0 | 4.0 | 0.00 | 0.00 | 0.00 | 80 | 1015.6 |
| 20260507150553 | 63 | 255 | 0.0 | 3.0 | 0.00 | 0.00 | 0.00 | 81 | 1015.6 |
| 20260507150054 | 62 | 0 | 0.0 | 2.0 | 0.00 | 0.00 | 0.00 | 81 | 1015.6 |
| 20260507145553 | 61 | 0 | 0.0 | 1.0 | 0.00 | 0.00 | 0.00 | 82 | 1015.6 |
| 20260507145054 | 61 | 0 | 0.0 | 1.0 | 0.00 | 0.00 | 0.00 | 82 | 1015.5 |
| 20260507144557 | 60 | 0 | 0.0 | 2.0 | 0.00 | 0.00 | 0.00 | 82 | 1015.5 |
| 20260507144055 | 60 | 0 | 0.0 | 2.0 | 0.00 | 0.00 | 0.00 | 83 | 1015.5 |
| 20260507143552 | 60 | 0 | 0.0 | 0.0 | 0.00 | 0.00 | 0.00 | 84 | 1015.5 |
| 20260507143055 | 59 | 0 | 0.0 | 0.0 | 0.00 | 0.00 | 0.00 | 86 | 1015.5 |
| 20260507142553 | 59 | 0 | 0.0 | 0.0 | 0.00 | 0.00 | 0.00 | 86 | 1015.4 |
| 20260507142053 | 58 | 0 | 0.0 | 0.0 | 0.00 | 0.00 | 0.00 | 86 | 1015.4 |
| 20260507141558 | 58 | 0 | 0.0 | 1.0 | 0.00 | 0.00 | 0.00 | 87 | 1015.4 |
| 20260507141052 | 58 | 0 | 0.0 | 1.0 | 0.00 | 0.00 | 0.00 | 88 | 1015.3 |
| 20260507140556 | 58 | 0 | 0.0 | 0.0 | 0.00 | 0.00 | 0.00 | 89 | 1015.2 |
| 20260507140053 | 57 | 0 | 0.0 | 1.0 | 0.00 | 0.00 | 0.00 | 90 | 1015.2 |
| 20260507135556 | 56 | 0 | 0.0 | 1.0 | 0.00 | 0.00 | 0.00 | 90 | 1015.2 |
| 20260507135053 | 56 | 0 | 0.0 | 2.0 | 0.00 | 0.00 | 0.00 | 90 | 1015.2 |
| 20260507134557 | 55 | 0 | 0.0 | 2.0 | 0.00 | 0.00 | 0.00 | 90 | 1015.0 |